Вернуться в каталог

STARLINK-35413

АктивенСвязьVLEO
NORAD 65886·PAYLOAD·🇺🇸 United States

Запущен Oct 7, 2025 с Cape Canaveral Space Force Station

Loading…

Ближайшие Пролёты (ближайшие 24 часа)

TLE

СвежийSource: CelesTrak SupGP

Эпоха: Sep 14, 2026, 22:59 UTC

1 65886C 25224E   26257.95812500 -.00021116  00000+0 -62335-3 0  2571
2 65886  53.1576 207.7247 0001278  92.2230 336.3828 15.34427550    17

Отслеживайте STARLINK-35413 в реальном времени с AllMySat

Download on the App Store